"Pseudo-MPEC" for ST26G68

Created 2026 Jul 28 11:37:20 UT using Find_Orb

Click here for an explanation of pseudo-MPECs

 
 Astrometry: 
     ST26G68* C2026 07 18.36105318 01 13.572+25 42 39.95   ~7NF5 16.98GVNEOCPU68
     ST26G68  C2026 07 18.36439518 01 13.194+25 42 38.88   ~7NF5 16.98GVNEOCPU68

Station data:
(U68) JPL SynTrack Robotic Telescope, Auberry  (N37.070387 W119.412990)
   US/California.  Observers N. Saini, C. Zhai, R. Trahan, M. Zhan, M. Shao.
   0.28-m f/2.2 Schmidt + CCD.

Orbital elements:  ST26G68
   Perihelion 2026 Mar 16.523558 +/- 221 TT = 12:33:55.4 (JD 2461116.023558)
Epoch 2026 Jul 18.0 TT = JDT 2461239.5   Earth MOID: 0.0101      AutoNEOCP
M  15.627282937 +/- 80              (J2000 ecliptic)
n   0.126560846 +/- 0.211           Peri.  266.023903 +/- 43
a   3.928889392 +/- 4.37            Node   268.312624 +/- 70
e   0.85924682 +/- 0.246            Incl.   63.604505 +/- 47
P   7.78762                H 13.97  G  0.15   U 11.7  SR
q 0.553003657 +/- 0.846    Q 7.304775126 +/- 22.9
From 2 observations 2026 July 18 (4.8 min); mean residual 0".01
Residuals in arcseconds: 
260718 U68  .01+  .00     260718 U68  .01+  .00     

Ephemerides (geocentric):
Date (UTC) HH   RA             Dec           delta  r     elong  mag " sig PA
---- --------  ------------   ------------  ------ ------ -----  --- --------
2026 07 28 12  17 45 58.789   +24 33 42.16  1.5026 2.2042 121.0 17.7 5021 112
2026 07 28 13  17 45 55.842   +24 33 22.05  1.5034 2.2046 120.9 17.7 5089 112
2026 07 28 14  17 45 52.902   +24 33 01.92  1.5042 2.2051 120.9 17.7 5160 112
2026 07 28 15  17 45 49.969   +24 32 41.77  1.5050 2.2056 120.9 17.7 5233 113
2026 07 28 16  17 45 47.041   +24 32 21.61  1.5058 2.2061 120.9 17.7 5309 113
2026 07 28 17  17 45 44.119   +24 32 01.42  1.5065 2.2065 120.8 17.7 5388 113
2026 07 28 18  17 45 41.204   +24 31 41.22  1.5073 2.2070 120.8 17.7 5470 113
2026 07 28 19  17 45 38.294   +24 31 21.00  1.5081 2.2075 120.8 17.7 5556 114
2026 07 28 20  17 45 35.391   +24 31 00.76  1.5089 2.2080 120.8 17.7 5645 114
2026 07 28 21  17 45 32.494   +24 30 40.50  1.5097 2.2084 120.7 17.7 5738 114
2026 07 28 22  17 45 29.603   +24 30 20.22  1.5105 2.2089 120.7 17.7 5836 115
2026 07 28 23  17 45 26.718   +24 29 59.93  1.5113 2.2094 120.7 17.7 5937 115
2026 07 29 00  17 45 23.840   +24 29 39.61  1.5121 2.2099 120.7 17.7 6044 115
2026 07 29 01  17 45 20.967   +24 29 19.28  1.5129 2.2103 120.6 17.7 6156 116
2026 07 29 02  17 45 18.101   +24 28 58.94  1.5137 2.2108 120.6 17.7 6274 116
2026 07 29 03  17 45 15.240   +24 28 38.57  1.5145 2.2113 120.6 17.7 6398 116
2026 07 29 04  17 45 12.386   +24 28 18.19  1.5153 2.2118 120.6 17.7 6529 117
2026 07 29 05  17 45 09.537   +24 27 57.79  1.5161 2.2122 120.5 17.7 6667 117
2026 07 29 06  17 45 06.695   +24 27 37.37  1.5169 2.2127 120.5 17.7 6813 117
2026 07 29 07  17 45 03.859   +24 27 16.93  1.5177 2.2132 120.5 17.7 6967 118
2026 07 29 08  17 45 01.029   +24 26 56.48  1.5185 2.2137 120.5 17.7 7132 118
2026 07 29 09  17 44 58.205   +24 26 36.01  1.5193 2.2141 120.4 17.7 7307 118
2026 07 29 10  17 44 55.387   +24 26 15.52  1.5201 2.2146 120.4 17.7 7493 119
2026 07 29 11  17 44 52.575   +24 25 55.02  1.5209 2.2151 120.4 17.7 7693 119
2026 07 29 12  17 44 49.769   +24 25 34.50  1.5217 2.2156 120.4 17.7 7906 120
2026 07 29 13  17 44 46.969   +24 25 13.96  1.5225 2.2160 120.4 17.7 8136 120
2026 07 29 14  17 44 44.175   +24 24 53.40  1.5233 2.2165 120.3 17.7 8382 121
2026 07 29 15  17 44 41.387   +24 24 32.83  1.5241 2.2170 120.3 17.7 8649 121
2026 07 29 16  17 44 38.606   +24 24 12.24  1.5249 2.2175 120.3 17.7 8937 121
2026 07 29 17  17 44 35.830   +24 23 51.64  1.5257 2.2179 120.3 17.7 9250 122
2026 07 29 18  17 44 33.060   +24 23 31.01  1.5265 2.2184 120.2 17.7 9591 122
2026 07 29 19  17 44 30.296   +24 23 10.38  1.5273 2.2189 120.2 17.7 9963 123
2026 07 29 20  17 44 27.538   +24 22 49.72  1.5281 2.2194 120.2 17.7 173' 123
2026 07 29 21  17 44 24.786   +24 22 29.05  1.5289 2.2198 120.2 17.7 180' 124
2026 07 29 22  17 44 22.040   +24 22 08.36  1.5297 2.2203 120.1 17.7 188' 124
2026 07 29 23  17 44 19.300   +24 21 47.65  1.5305 2.2208 120.1 17.7 198' 125
2026 07 30 00  17 44 16.566   +24 21 26.93  1.5313 2.2213 120.1 17.7 208' 125
2026 07 30 01  17 44 13.838   +24 21 06.19  1.5321 2.2217 120.1 17.7 219' 126
2026 07 30 02  17 44 11.116   +24 20 45.44  1.5329 2.2222 120.0 17.7 231' 127
2026 07 30 03  17 44 08.400   +24 20 24.67  1.5337 2.2227 120.0 17.7 245' 127
2026 07 30 04  17 44 05.690   +24 20 03.89  1.5345 2.2232 120.0 17.7 261' 128
2026 07 30 05  17 44 02.986   +24 19 43.08  1.5353 2.2236 120.0 17.7 278' 128
2026 07 30 06  17 44 00.287   +24 19 22.27  1.5361 2.2241 119.9 17.7 298' 128
2026 07 30 07  17 43 57.595   +24 19 01.43  1.5369 2.2246 119.9 17.7 320' 129
2026 07 30 08  17 43 54.908   +24 18 40.58  1.5377 2.2251 119.9 17.7 344' 129
2026 07 30 09  17 43 52.228   +24 18 19.72  1.5385 2.2255 119.9 17.7 372' 129
2026 07 30 10  17 43 49.553   +24 17 58.84  1.5394 2.2260 119.8 17.7 401' 129
2026 07 30 11  17 43 46.884   +24 17 37.94  1.5402 2.2265 119.8 17.7 434' 129